Find Starlink 31876

NORAD ID: 59938 Int'l Des: 2024-106 Owner: SPXS Country: US Constellation: starlink operational
LEOCIRCULAR

現在のビュー

3D地球を読み込み中...

About Starlink 31876

Starlink 31876 (NORAD 59938) is a starlink constellation satellite (v2 mini) launched Jun 1, 2024 by SPXS of US. It operates in LEO, CIRCULAR orbit with a mass of 730.00 kg.

Starlink 31876について

説明を読み込み中...

次回通過

Passes for default location (London). Set your location on the main map for personalized predictions.

高度履歴

Loading altitude history...

軌道要素

1 59938U 24106S 26169.57992223 .00001396 00000-0 60229-4 0 9992
2 59938 42.9973 122.6664 0000838 66.6125 293.4815 15.27584007115965
Epoch: Jun 18, 2026 • Age: 17 hours

現在のステータス

高度 484.7 km
速度 7.62 km/s
衛星直下点 -10.36°S, 93.14°E
打ち上げ日 Jun 1, 2024
運用期間 2 years
タイプ internet

技術仕様

分類 Payload
質量 730.00 kg
乾燥質量 700.00 kg
総質量 730.00 kg
長さ 0.30 m
直径 4.10 m
スパン 29.00 m
形状 Box + pan
製造者 SPXS
バスタイプ Starlink V2M
フェーズステータス In Orbit
所有者/国 SPXS/US

Most Searched